Pierre Regional Airport
KPIR : now visible

Airfield :











YOU CAN JOIN US ON...

 
LOGIN :

Register | Disclaimer

   EN    FR    IT 

 









Legend :    VFR   Marginal VFR   IFR   Intensive IFR   Very Intensive IFR
Visi :
Ceiling :
>= 8 km
>= 3000ft
5 to 8 km
1000 to 3000 ft
1500m to 5 km
500 to 1000 ft
800 to 1500m
200 to 500 ft
< 800m
< 200 ft
Symbols :   Thunderstorms  Fog  Heavy snow  Heavy precipitations  Wind > 20 kt






- Airport Elevation : 1744 ft
- IATA code : PIR


KPIR - Pierre Regional

CURRENT METAR :
  • 271253Z AUTO 24006KT 10SM CLR M04/M09 A3015 RMK AO2 SLP228 T10441094

EXPIRED METARs :
  • 271153Z AUTO 28005KT 10SM CLR M05/M09 A3015 RMK AO2 SLP228 T10501094 10000 21050 53003
  • 271053Z AUTO 23005KT 10SM CLR M05/M09 A3014 RMK AO2 SLP224 T10501094

TAF KPIR
Valid from the 27 at 12:00 until the 28 at 12:00 UTC


271125Z 2712/2812 25006KT P6SM FEW200
FM271900 27012KT P6SM FEW250
KZMP FIR / North America



MET'MAP, your aeronautical weather chart ! - Copyright ORBIFLY December 2007 - Disclaimer

ORBIFLY MET'MAP TEAM :

Programming & Development : Alexandra Zaïnal
Concept & original design : Baudouin d'Aumeries
Assistance for programming : Marc-Olivier Méhu
Technical & hardware support : Manuel Goepfert

Contact : metmap@orbifly.com




SOURCES & CREDITS :

   NOAA       Earth
Advisory